(232618) = 2003 UV150

Discovered at Anderson Mesa on 2003-10-21 by LONEOS.

Orbit

Orbit type: Main Belt

Note: WebGL enabled browser required.

epoch2023-02-25.0
epoch JD2460000.5
perihelion date2019-06-29.64687
perihelion JD2458664.14687
argument of perihelion (°)127.51485
ascending node (°)197.38554
inclination (°)8.86658
eccentricity0.0810162
perihelion distance (AU)2.8608254
Tisserand w.r.t. Jupiter3.2
ΔV w.r.t. Earth (km/sec)10.9
semimajor axis (AU)3.1130313
mean anomaly (°)239.80037
mean daily motion (°/day)0.17944390
aphelion distance (AU)3.365
period (years)5.49
P-vector [x]0.81532142
P-vector [y]-0.56788420
P-vector [z]-0.11295365
Q-vector [x]0.57717407
Q-vector [y]0.78160601
Q-vector [z]0.23656318
absolute magnitude15.52
phase slope0.15
uncertainty0
referenceMPO 745323
observations used497
oppositions14
arc length (days)7177
first opposition used2003
last opposition used2023
residual rms (arc-secs)0.75
perturbers coarse indicatorM-v
perturbers precise indicator003Ek
first observation date used2003-09-16.0
last observation date used2023-05-11.0
computer nameMPCLINUX
JD of orbit computation2456966.703082
perihelion JD uncertainty (days)2.9963E-04
argument of perihelion uncertainty (°)5.9461E-05
ascending node uncertainty (°)2.1571E-05
inclination uncertainty (°)9.1220E-06
eccentricity uncertainty 4.7762E-08
perihelion distance uncertainty (AU)1.4360E-07
Minimum Orbit Intersection Distances (in AU)
for orbit epoch: 2460000.5, reference: E2023-JB1
Mercury2.45583
Venus2.14775
Earth1.85928
Mars1.50686
Jupiter1.93624
Saturn5.83574
Uranus15.1126
Neptune26.8143

Observations

501 total observations over interval: 2003 09 16.42829 – 2023 05 11.198569
These data are available for download (format description).

Date (UT) J2000 RA J2000 Dec Magn Location Ref
2003 09 16.42829 01 42 53.55 +10 56 42.8 20.3 V 691 – Steward Observatory, Kitt Peak-Spacewatch MPS 155882
2003 09 16.45597 01 42 52.84 +10 56 34.1 21.0 V 691 – Steward Observatory, Kitt Peak-Spacewatch MPS 155882
2003 09 16.48355 01 42 52.15 +10 56 25.4 20.5 V 691 – Steward Observatory, Kitt Peak-Spacewatch MPS 155882
2003 09 17.42772 01 42 29.12 +10 51 33.6 19.9   644 – Palomar Mountain/NEAT MPS 155882
2003 09 17.43903 01 42 28.79 +10 51 30.0 19.6   644 – Palomar Mountain/NEAT MPS 155882
2003 09 17.45034 01 42 28.51 +10 51 26.7 19.7   644 – Palomar Mountain/NEAT MPS 155882
2003 09 26.28923 01 38 04.79 +10 00 26.6 19.2   704 – Lincoln Laboratory ETS, New Mexico MPS 155882
2003 09 26.30160 01 38 04.30 +10 00 22.0 19.5   704 – Lincoln Laboratory ETS, New Mexico MPS 155882
2003 09 26.32715 01 38 03.42 +10 00 12.0 19.2   704 – Lincoln Laboratory ETS, New Mexico MPS 155882
2003 09 26.33991 01 38 02.97 +10 00 07.5 19.5   704 – Lincoln Laboratory ETS, New Mexico MPS 155882
2003 10 21.23071 01 21 11.66 +07 05 54.3 19.1 R 699 – Lowell Observatory-LONEOS MPS 89774
2003 10 21.25069 01 21 10.70 +07 05 45.3   699 – Lowell Observatory-LONEOS MPS 89774
2003 10 21.27075 01 21 09.87 +07 05 36.4   699 – Lowell Observatory-LONEOS MPS 89774
2003 10 21.28390 01 21 09.30 +07 05 33.2 19.2 C 704 – Lincoln Laboratory ETS, New Mexico MPS 290178
2003 10 21.29079 01 21 09.05 +07 05 29.5   699 – Lowell Observatory-LONEOS MPS 89774
2003 10 21.29583 01 21 08.72 +07 05 26.1 19.3 C 704 – Lincoln Laboratory ETS, New Mexico MPS 290178
2003 10 21.30816 01 21 08.15 +07 05 22.2 19.0 C 704 – Lincoln Laboratory ETS, New Mexico MPS 290178
2003 10 21.33165 01 21 07.19 +07 05 11.9 19.2 C 704 – Lincoln Laboratory ETS, New Mexico MPS 290178
2003 10 22.34197 01 20 25.14 +06 58 03.8 20.8   608 – Haleakala-AMOS MPS 89774
2003 10 22.35238 01 20 24.67 +06 57 58.9 20.9   608 – Haleakala-AMOS MPS 89774
2003 10 22.36290 01 20 24.19 +06 57 54.5 20.3   608 – Haleakala-AMOS MPS 89774
2003 10 23.16123 01 19 51.14 +06 52 16.6 18.8 R 695 – Kitt Peak MPS 93742
2003 10 23.25665 01 19 47.07 +06 51 36.7   695 – Kitt Peak MPS 93742
2003 10 26.19168 01 17 47.69 +06 31 19.1 20.7 V 691 – Steward Observatory, Kitt Peak-Spacewatch MPS 89774
2003 10 26.21891 01 17 46.57 +06 31 08.3 20.3 V 691 – Steward Observatory, Kitt Peak-Spacewatch MPS 89774
2003 10 26.24911 01 17 45.33 +06 30 56.0 20.3 V 691 – Steward Observatory, Kitt Peak-Spacewatch MPS 89774
2003 10 28.20458 01 16 28.36 +06 17 47.5 19.5   704 – Lincoln Laboratory ETS, New Mexico MPS 89774
2003 10 28.21717 01 16 27.83 +06 17 42.4 19.9   704 – Lincoln Laboratory ETS, New Mexico MPS 89774
2003 10 28.22983 01 16 27.38 +06 17 36.8 20.2   704 – Lincoln Laboratory ETS, New Mexico MPS 89774
2003 10 28.24227 01 16 26.82 +06 17 31.2 20.0   704 – Lincoln Laboratory ETS, New Mexico MPS 89774
2003 10 28.25464 01 16 26.38 +06 17 26.8 20.6   704 – Lincoln Laboratory ETS, New Mexico MPS 89774
2007 05 13.32490 16 04 52.49 -12 00 34.9 20.3 V 691 – Steward Observatory, Kitt Peak-Spacewatch MPS 210709
2007 05 13.34250 16 04 51.66 -12 00 29.8 20.2 V 691 – Steward Observatory, Kitt Peak-Spacewatch MPS 210709
2007 05 13.36011 16 04 50.89 -12 00 24.8 20.3 V 691 – Steward Observatory, Kitt Peak-Spacewatch MPS 210709
2007 06 08.28116 15 45 29.98 -10 16 45.6 19.9 V 691 – Steward Observatory, Kitt Peak-Spacewatch MPS 210709
2007 06 08.29882 15 45 29.23 -10 16 42.7 19.9 V 691 – Steward Observatory, Kitt Peak-Spacewatch MPS 210709
2007 06 08.31647 15 45 28.51 -10 16 39.4 20.0 V 691 – Steward Observatory, Kitt Peak-Spacewatch MPS 210709
2007 06 12.27415 15 42 55.50 -10 06 09.3 20.2 V 691 – Steward Observatory, Kitt Peak-Spacewatch MPS 210709
2007 06 12.29181 15 42 54.82 -10 06 06.5 20.0 V 691 – Steward Observatory, Kitt Peak-Spacewatch MPS 210709
2007 06 12.30704 15 42 54.24 -10 06 04.6 20.1 V 691 – Steward Observatory, Kitt Peak-Spacewatch MPS 210709
2008 07 27.92874 22 38 23.47 +01 45 17.1 20.0 V A50 – Andrushivka Astronomical Observatory MPS 254454
2008 07 27.93037 22 38 23.47 +01 45 16.9 20.0 V A50 – Andrushivka Astronomical Observatory MPS 254454
2008 07 27.93197 22 38 23.43 +01 45 16.7 20.4 V A50 – Andrushivka Astronomical Observatory MPS 254454
2008 07 27.97697 22 38 22.35 +01 45 12.1 18.9 V A50 – Andrushivka Astronomical Observatory MPS 254454
2008 07 29.88828 22 37 37.91 +01 41 13.0 19.4 V A50 – Andrushivka Astronomical Observatory MPS 276475
2008 07 29.88988 22 37 37.80 +01 41 13.4 20.0 V A50 – Andrushivka Astronomical Observatory MPS 276475
2008 07 29.89149 22 37 37.78 +01 41 13.2 19.7 V A50 – Andrushivka Astronomical Observatory MPS 276475
2008 07 29.93642 22 37 36.67 +01 41 07.0 18.9 V A50 – Andrushivka Astronomical Observatory MPS 276475
2008 08 01.31902 22 36 35.36 +01 35 14.8 20.0   704 – Lincoln Laboratory ETS, New Mexico MPS 253513
2008 08 01.33021 22 36 35.05 +01 35 11.9 20.3   704 – Lincoln Laboratory ETS, New Mexico MPS 253513
2008 08 01.34125 22 36 34.71 +01 35 09.3 20.5   704 – Lincoln Laboratory ETS, New Mexico MPS 253513
2008 09 07.29359 22 13 15.52 -01 43 58.6 19.4 V 703 – Catalina Sky Survey MPS 255822
2008 09 07.30005 22 13 15.31 -01 44 01.0 19.5 V 703 – Catalina Sky Survey MPS 255822
2008 09 07.30652 22 13 15.06 -01 44 03.6 19.2 V 703 – Catalina Sky Survey MPS 255822
2008 09 07.31302 22 13 14.80 -01 44 07.5 19.1 V 703 – Catalina Sky Survey MPS 255822
2008 09 22.22273 22 05 07.94 -03 27 22.2 19.0   704 – Lincoln Laboratory ETS, New Mexico MPS 256638
2008 09 22.24684 22 05 07.33 -03 27 32.1 19.5   704 – Lincoln Laboratory ETS, New Mexico MPS 256638
2008 09 22.25899 22 05 06.98 -03 27 37.1 19.6   704 – Lincoln Laboratory ETS, New Mexico MPS 256638
2008 09 22.27106 22 05 06.64 -03 27 41.1 19.6   704 – Lincoln Laboratory ETS, New Mexico MPS 256638
2008 11 17.12823 22 14 42.88 -06 28 13.7   291 – LPL/Spacewatch II MPS 265203
2008 11 17.13850 22 14 43.33 -06 28 12.0   291 – LPL/Spacewatch II MPS 265203
2008 11 17.15060 22 14 43.84 -06 28 11.5   291 – LPL/Spacewatch II MPS 265203
2009 11 17.42450 04 29 57.40 +12 24 35.0 19.4 V 703 – Catalina Sky Survey MPS 303252
2009 11 17.43234 04 29 57.01 +12 24 34.2 20.0 V 703 – Catalina Sky Survey MPS 303252
2009 11 17.44024 04 29 56.65 +12 24 32.1 19.7 V 703 – Catalina Sky Survey MPS 303252
2009 11 17.44818 04 29 56.29 +12 24 30.9 19.7 V 703 – Catalina Sky Survey MPS 303252
2009 11 25.38681 04 23 33.39 +11 53 18.7 19.2 V G96 – Mt. Lemmon Survey MPS 304841
2009 11 25.39383 04 23 33.03 +11 53 17.2 19.4 V G96 – Mt. Lemmon Survey MPS 304841
2009 11 25.40097 04 23 32.67 +11 53 15.6 19.3 V G96 – Mt. Lemmon Survey MPS 304841
2009 11 25.40807 04 23 32.31 +11 53 14.1 19.2 V G96 – Mt. Lemmon Survey MPS 304841
2010 02 16.16991 04 03 55.94 +12 09 46.2 20.8 V G96 – Mt. Lemmon Survey MPS 313092
2010 02 16.17571 04 03 56.05 +12 09 47.7 20.6 V G96 – Mt. Lemmon Survey MPS 313092
2010 02 16.18159 04 03 56.26 +12 09 48.6 20.7 V G96 – Mt. Lemmon Survey MPS 313092
2010 02 16.18749 04 03 56.48 +12 09 49.5 21.2 V G96 – Mt. Lemmon Survey MPS 313092
2012 02 25.44272 13 48 36.03 -11 39 34.2 20.6 V G96 – Mt. Lemmon Survey MPS 415923
2012 02 25.45076 13 48 36.03 -11 39 33.1 20.8 V G96 – Mt. Lemmon Survey MPS 415923
2012 02 25.45888 13 48 36.00 -11 39 32.2 20.9 V G96 – Mt. Lemmon Survey MPS 415923
2012 02 25.46692 13 48 35.96 -11 39 31.1 20.5 V G96 – Mt. Lemmon Survey MPS 415923
2012 03 15.56590 13 43 52.053 -10 32 59.02 20.3 i F51 – Pan-STARRS 1, Haleakala MPS 417060
2012 03 15.57758 13 43 51.726 -10 32 55.83 20.5 i F51 – Pan-STARRS 1, Haleakala MPS 417060
2012 03 16.32827 13 43 32.26 -10 29 22.7 20.6 V 691 – Steward Observatory, Kitt Peak-Spacewatch MPS 417060
2012 03 16.34602 13 43 31.77 -10 29 17.6 20.7 V 691 – Steward Observatory, Kitt Peak-Spacewatch MPS 417060
2012 03 16.36377 13 43 31.28 -10 29 12.9 20.6 V 691 – Steward Observatory, Kitt Peak-Spacewatch MPS 417060
2012 03 27.24961 13 37 46.38 -09 30 50.6 20.4 V 691 – Steward Observatory, Kitt Peak-Spacewatch MPS 420063
2012 03 27.26737 13 37 45.71 -09 30 43.7 20.2 V 691 – Steward Observatory, Kitt Peak-Spacewatch MPS 420063
2012 03 27.28513 13 37 45.06 -09 30 37.5 20.3 V 691 – Steward Observatory, Kitt Peak-Spacewatch MPS 420063
